Snowfall_Accumulation
0.0 0.0 0.0 0.0 0.0 0.0 0.0 0.0 0.3 0.5 0.0 0.0 0.0 0.0 0.0 0.0 0.0 0.0 0.0 nan nan nan nan nan nan nan nan nan nan nan nan nan nan nan nan nan nan nan
0.0 0.0 0.0 0.0 0.0 0.0 0.0 0.0 0.0 0.4 0.4 0.0 0.0 0.0 0.0 0.0 0.0 0.0 0.0 nan nan nan nan nan nan nan nan nan nan nan nan nan nan nan nan nan nan nan
0.0 0.0 0.0 0.0 0.0 0.0 0.0 0.0 0.0 0.1 0.5 0.0 0.0 0.0 0.0 0.0 0.0 0.0 0.0 0.0 0.0 nan nan nan nan nan nan nan nan nan nan nan nan nan nan nan nan nan
0.0 0.0 0.0 0.0 0.0 0.0 0.0 0.0 0.0 0.0 0.1 0.0 0.0 0.0 0.0 0.0 0.0 0.0 0.0 0.0 0.0 nan nan nan nan nan nan nan nan nan nan nan nan nan nan nan nan nan
0.0 0.0 0.0 0.0 0.0 0.0 0.0 0.0 0.0 0.0 0.0 0.1 0.0 0.0 0.0 0.0 0.0 0.0 0.0 0.0 0.0 nan nan nan nan nan nan nan nan nan nan nan nan nan nan nan nan nan
0.0 0.0 0.0 0.0 0.0 0.0 0.0 0.0 0.0 0.0 0.0 0.0 0.0 0.0 0.0 0.0 0.0 0.0 0.0 0.0 0.0 0.0 nan nan nan nan nan nan nan nan nan nan nan nan nan nan nan nan
0.0 0.0 0.0 nan nan nan 0.0 0.0 0.0 0.0 0.0 0.0 0.0 0.0 0.1 0.0 0.0 0.0 0.0 0.0 0.0 0.0 0.0 0.0 0.0 0.0 0.0 nan nan nan nan nan nan nan nan nan nan nan
0.5 0.0 0.0 0.0 0.0 nan nan nan nan 0.0 0.0 0.0 0.0 0.0 0.0 0.1 0.0 0.0 0.0 0.1 0.5 0.0 0.0 0.0 0.0 0.0 0.0 0.0 nan nan nan nan nan nan nan nan nan nan
0.5 0.2 0.0 0.0 nan 0.0 nan nan nan nan nan 0.2 0.0 0.0 0.0 0.0 0.0 0.1 0.0 0.1 0.3 0.0 0.1 0.0 0.0 0.0 0.0 0.0 nan nan nan nan nan nan nan nan nan nan
0.1 0.2 0.3 0.1 0.0 0.0 0.0 0.0 0.0 0.0 0.0 0.0 0.3 0.2 0.1 0.0 0.0 0.0 0.1 0.1 0.0 0.0 0.0 0.5 0.0 0.0 0.0 0.0 nan nan nan nan nan nan nan nan nan nan
0.0 0.1 0.0 0.1 nan nan 0.7 0.8 0.1 0.0 nan nan nan nan nan nan nan 0.0 0.3 0.7 0.3 0.0 0.0 0.2 0.0 0.0 0.0 0.0 0.0 nan nan nan nan nan nan nan nan nan
0.1 0.0 nan 0.1 nan nan 0.3 0.4 0.3 0.0 0.0 0.0 0.0 0.0 nan nan nan 0.0 0.0 0.8 0.8 0.9 0.0 0.8 0.3 0.3 0.8 0.2 0.0 0.0 0.0 nan nan nan nan nan nan 0.0
0.4 0.2 0.1 nan nan nan nan 0.9 0.2 0.0 0.0 0.0 0.0 0.0 0.0 0.0 0.0 0.0 0.0 0.1 0.5 0.9 0.0 0.4 1.9 1.1 1.5 1.1 0.4 0.2 0.0 0.0 0.0 0.0 nan nan nan 0.0
1.1 0.3 0.2 nan nan nan nan nan nan nan 0.1 0.0 0.0 0.1 0.1 0.1 0.1 0.0 0.0 0.0 0.0 0.1 0.0 0.0 5.4 1.0 4.4 3.1 1.6 0.4 0.3 0.1 0.1 0.2 0.1 nan nan nan
0.2 0.3 nan nan nan nan nan nan nan 0.7 0.5 0.9 0.3 0.3 0.2 0.2 0.1 0.2 0.0 0.0 0.1 0.0 0.0 0.1 1.0 0.9 2.0 3.9 2.7 1.7 0.8 0.4 0.3 0.4 0.3 0.2 0.2 0.1
nan 0.2 nan 0.3 nan nan 0.1 0.1 0.2 0.2 0.3 0.4 0.3 0.3 0.4 0.6 0.5 0.6 1.4 1.0 1.8 1.5 0.4 0.2 0.2 0.1 4.3 2.0 2.2 2.1 1.0 2.4 0.5 0.4 0.4 0.3 0.2 0.1
nan 0.8 1.4 1.1 1.1 0.6 0.7 0.7 1.0 1.0 1.3 1.3 1.4 0.9 0.7 0.6 0.8 0.7 1.1 1.7 3.2 2.8 3.7 2.8 0.6 0.3 0.9 1.1 4.4 1.0 1.0 1.3 0.5 0.6 0.7 0.5 0.3 0.2
1.9 2.8 3.5 3.2 2.5 1.4 1.3 1.4 1.0 0.9 1.0 1.1 1.2 1.3 1.9 2.3 2.3 2.2 1.8 2.2 2.9 2.1 3.1 3.4 3.7 4.7 2.9 1.4 1.1 1.0 0.9 1.0 0.7 0.6 0.6 1.4 0.8 0.2
2.7 3.3 4.6 5.1 5.1 3.8 2.6 2.3 2.6 1.4 0.3 2.1 2.2 1.9 2.0 2.2 2.5 3.0 2.6 1.8 2.3 2.1 2.3 3.0 3.7 4.3 7.3 5.1 1.0 nan 2.7 1.5 1.4 1.2 0.6 1.0 1.3 0.6
3.7 4.0 4.3 5.6 6.6 6.4 5.2 4.7 3.0 2.5 2.4 2.2 2.5 2.7 3.4 4.4 4.7 4.0 2.8 3.7 3.0 3.4 3.9 3.4 3.8 4.2 6.9 6.1 8.3 2.6 nan 1.8 1.7 1.8 3.6 1.0 0.6 nan
3.8 5.1 4.1 5.1 7.1 7.3 6.5 5.4 4.8 4.2 4.0 5.1 3.7 3.9 3.5 4.3 4.1 2.7 2.4 1.7 nan 3.6 5.6 3.5 2.0 nan 7.1 5.9 7.7 2.9 1.5 nan 0.3 3.0 3.8 4.3 3.4 1.5
3.6 4.6 5.8 4.7 5.7 7.2 7.4 7.5 7.8 7.1 6.0 4.9 5.1 4.5 3.6 3.6 4.4 2.9 2.1 3.5 2.2 2.3 3.9 3.1 3.3 3.8 6.5 5.0 4.3 4.2 3.4 1.6 nan nan nan nan 10.7 16.4
3.8 3.8 4.9 5.5 4.9 5.8 7.0 8.7 9.7 9.1 8.1 7.6 7.2 5.4 4.5 6.5 2.2 2.2 2.4 2.6 3.8 4.7 4.1 7.0 4.7 4.2 3.9 4.6 7.5 6.6 5.3 4.0 3.2 3.8 4.6 nan nan nan
Water_Equivalent
0.00 0.00 0.00 0.00 0.00 0.00 0.00 0.01 0.08 0.09 0.00 0.00 0.00 0.00 0.00 0.00 0.00 0.00 0.00 nan nan nan nan nan nan nan nan nan nan nan nan nan nan nan nan nan nan nan
0.00 0.00 0.00 0.00 0.00 0.00 0.00 0.00 0.01 0.08 0.08 0.00 0.00 0.00 0.00 0.00 0.00 0.00 0.00 nan nan nan nan nan nan nan nan nan nan nan nan nan nan nan nan nan nan nan
0.00 0.00 0.00 0.00 0.00 0.00 0.00 0.00 0.01 0.02 0.11 0.00 0.00 0.00 0.00 0.00 0.00 0.00 0.00 0.00 0.00 nan nan nan nan nan nan nan nan nan nan nan nan nan nan nan nan nan
0.00 0.00 0.00 0.00 0.00 0.00 0.00 0.00 0.00 0.00 0.02 0.00 0.00 0.00 0.00 0.00 0.00 0.00 0.00 0.00 0.00 nan nan nan nan nan nan nan nan nan nan nan nan nan nan nan nan nan
0.00 0.00 0.00 0.00 0.00 0.00 0.00 0.00 0.00 0.00 0.00 0.02 0.00 0.00 0.00 0.00 0.00 0.00 0.00 0.00 0.00 nan nan nan nan nan nan nan nan nan nan nan nan nan nan nan nan nan
0.00 0.00 0.00 0.00 0.00 0.00 0.00 0.00 0.00 0.00 0.00 0.00 0.00 0.00 0.00 0.00 0.00 0.00 0.01 0.00 0.00 0.00 nan nan nan nan nan nan nan nan nan nan nan nan nan nan nan nan
0.00 0.00 0.00 nan nan nan 0.00 0.00 0.00 0.00 0.00 0.00 0.00 0.01 0.02 0.00 0.01 0.00 0.01 0.00 0.00 0.00 0.00 0.00 0.00 0.00 0.00 nan nan nan nan nan nan nan nan nan nan nan
0.07 0.00 0.00 0.00 0.00 nan nan nan nan 0.00 0.00 0.01 0.01 0.00 0.01 0.03 0.00 0.00 0.00 0.02 0.11 0.00 0.00 0.00 0.00 0.00 0.00 0.00 nan nan nan nan nan nan nan nan nan nan
0.08 0.03 0.01 0.00 nan 0.00 nan nan nan nan nan 0.03 0.00 0.00 0.00 0.00 0.01 0.03 0.01 0.03 0.08 0.01 0.03 0.00 0.00 0.00 0.00 0.00 nan nan nan nan nan nan nan nan nan nan
0.01 0.02 0.04 0.01 0.00 0.00 0.00 0.00 0.00 0.00 0.00 0.00 0.05 0.02 0.02 0.01 0.00 0.01 0.02 0.01 0.00 0.02 0.01 0.15 0.00 0.00 0.00 0.00 nan nan nan nan nan nan nan nan nan nan
0.01 0.01 0.00 0.01 nan nan 0.11 0.11 0.01 0.00 nan nan nan nan nan nan nan 0.00 0.08 0.21 0.09 0.01 0.00 0.04 0.00 0.00 0.00 0.00 0.00 nan nan nan nan nan nan nan nan nan
0.01 0.01 nan 0.02 nan nan 0.05 0.06 0.04 0.00 0.00 0.00 0.00 0.00 nan nan nan 0.00 0.00 0.22 0.26 0.31 0.01 0.26 0.12 0.13 0.31 0.09 0.00 0.00 0.00 nan nan nan nan nan nan 0.00
0.07 0.03 0.03 nan nan nan nan 0.15 0.02 0.00 0.00 0.00 0.00 0.00 0.00 0.00 0.00 0.00 0.00 0.03 0.17 0.31 0.01 0.17 0.67 0.40 0.57 0.42 0.15 0.08 0.00 0.00 0.00 0.00 nan nan nan 0.00
0.21 0.06 0.04 nan nan nan nan nan nan nan 0.02 0.00 0.00 0.02 0.04 0.04 0.03 0.02 0.00 0.01 0.01 0.02 0.00 0.01 2.16 0.40 1.54 1.03 0.57 0.16 0.10 0.04 0.03 0.07 0.05 nan nan nan
0.03 0.04 nan nan nan nan nan nan nan 0.11 0.09 0.18 0.10 0.11 0.08 0.08 0.04 0.08 0.01 0.02 0.02 0.02 0.00 0.03 0.39 0.34 0.74 1.27 0.87 0.61 0.31 0.17 0.13 0.15 0.11 0.09 0.08 0.06
nan 0.03 nan 0.04 nan nan 0.01 0.01 0.03 0.03 0.05 0.09 0.11 0.11 0.16 0.23 0.20 0.22 0.54 0.39 0.69 0.56 0.13 0.08 0.09 0.05 1.41 0.64 0.68 0.62 0.39 0.82 0.20 0.15 0.14 0.11 0.07 0.04
nan 0.15 0.32 0.21 0.20 0.13 0.16 0.15 0.18 0.20 0.28 0.29 0.34 0.28 0.24 0.24 0.29 0.27 0.43 0.64 1.06 0.87 1.01 0.86 0.19 0.11 0.34 0.35 1.22 0.31 0.31 0.46 0.19 0.25 0.23 0.19 0.11 0.09
0.39 0.56 0.74 0.78 0.58 0.37 0.31 0.40 0.31 0.28 0.28 0.33 0.37 0.40 0.56 0.62 0.68 0.74 0.64 0.69 0.88 0.64 0.87 0.93 1.05 1.22 0.84 0.42 0.38 0.32 0.28 0.33 0.27 0.23 0.23 0.41 0.24 0.09
0.49 0.63 0.83 1.07 1.19 1.05 0.68 0.61 0.71 0.39 0.08 0.71 0.73 0.65 0.68 0.74 0.88 1.00 0.88 0.58 0.68 0.62 0.66 0.83 0.98 1.13 1.61 1.02 0.29 nan 0.81 0.50 0.45 0.36 0.21 0.31 0.36 0.21
0.63 0.64 0.75 0.96 1.30 1.37 1.32 1.24 0.85 0.72 0.72 0.70 0.80 0.89 1.11 1.40 1.41 1.12 0.87 1.07 0.82 0.93 1.03 0.95 1.03 1.17 1.88 1.60 1.81 0.68 nan 0.55 0.50 0.48 0.89 0.31 0.19 nan
0.62 0.85 0.66 0.84 1.25 1.43 1.42 1.49 1.34 1.27 1.28 1.61 1.17 1.26 1.14 1.36 1.18 0.81 0.71 0.53 nan 0.96 1.21 0.82 0.59 nan 2.07 1.64 1.54 0.58 0.42 nan 0.08 0.94 1.17 0.97 0.76 0.40
0.57 0.75 0.97 0.81 0.98 1.34 1.60 1.86 2.16 2.09 1.88 1.47 1.52 1.40 1.13 1.11 1.23 0.83 0.57 0.92 0.58 0.66 1.03 0.88 0.89 1.08 1.67 1.19 0.89 0.72 0.60 0.38 nan nan nan nan 2.51 3.40
0.63 0.63 0.86 1.00 0.96 1.15 1.48 2.04 2.36 2.39 2.11 2.27 2.14 1.61 1.35 1.62 0.63 0.62 0.66 0.67 0.93 1.13 1.02 1.41 1.07 1.00 0.88 1.05 1.49 1.17 0.85 0.67 0.65 0.78 0.85 nan nan nan
SL_Ratio
nan nan nan nan nan nan nan 3.6 4.2 5.9 10.0 nan nan nan nan nan nan nan nan nan nan nan nan nan nan nan nan nan nan nan nan nan nan nan nan nan nan nan
nan nan nan nan nan nan nan 5.0 4.2 4.5 5.2 nan nan nan nan nan nan nan nan nan nan nan nan nan nan nan nan nan nan nan nan nan nan nan nan nan nan nan
nan nan nan nan 5.0 5.0 5.0 5.0 3.6 3.6 4.7 nan nan nan nan nan nan nan nan nan nan nan nan nan nan nan nan nan nan nan nan nan nan nan nan nan nan nan
nan 7.5 5.0 nan 5.0 nan nan 5.0 2.5 nan 3.9 6.7 nan nan nan nan nan nan nan nan nan nan nan nan nan nan nan nan nan nan nan nan nan nan nan nan nan nan
5.0 8.3 5.0 5.0 6.7 6.0 7.0 7.5 5.0 5.0 7.0 5.4 4.0 5.0 nan nan nan nan nan nan nan nan nan nan nan nan nan nan nan nan nan nan nan nan nan nan nan nan
5.0 5.0 5.0 7.5 10.0 7.5 7.5 10.0 7.5 7.5 6.7 7.0 5.0 3.6 6.7 nan nan 5.0 3.1 nan nan nan nan nan nan nan nan nan nan nan nan nan nan nan nan nan nan nan
nan 5.0 5.0 nan nan nan 6.7 5.0 5.0 8.3 6.7 6.7 7.5 3.6 4.2 5.0 4.4 2.5 3.2 2.5 nan nan nan nan nan nan nan nan nan nan nan nan nan nan nan nan nan nan
7.1 6.7 nan nan nan nan nan nan nan 7.5 5.0 8.3 7.5 8.0 4.1 3.1 5.0 nan 3.6 3.7 4.0 nan nan nan nan nan nan nan nan nan nan nan nan nan nan nan nan nan
6.3 6.8 6.9 nan nan nan nan nan nan nan nan 7.1 7.5 nan 10.0 nan 2.8 3.5 5.0 3.8 3.5 3.6 3.1 5.0 nan nan nan nan nan nan nan nan nan nan nan nan nan nan
5.9 6.4 6.7 7.0 nan nan 7.5 10.0 nan nan nan nan 6.8 6.6 6.6 6.7 nan 2.6 3.2 4.0 5.0 2.7 3.7 3.4 nan nan nan nan nan nan nan nan nan nan nan nan nan nan
5.4 6.0 7.0 6.8 nan nan 6.7 7.4 7.9 5.0 nan nan nan nan nan nan nan nan 3.3 3.3 3.2 5.0 5.0 4.1 nan nan nan nan nan nan nan nan nan nan nan nan nan nan
5.8 6.0 nan 5.9 nan nan 6.2 6.9 7.3 8.8 nan nan nan nan nan nan nan nan 6.3 3.7 3.1 3.0 2.3 3.2 2.5 2.5 2.5 2.5 2.0 nan nan nan nan nan nan nan nan nan
5.5 6.0 5.6 nan nan nan nan 6.2 6.9 nan nan nan nan nan nan nan nan nan nan 2.6 2.7 2.9 2.5 2.5 2.8 2.8 2.6 2.5 2.5 2.5 nan nan nan nan nan nan nan nan
5.4 5.7 5.8 nan nan nan nan nan nan nan 6.3 5.8 5.0 2.6 2.5 2.5 2.4 2.4 nan 2.2 2.4 2.7 1.7 2.5 2.5 2.6 2.9 3.0 2.7 2.5 2.5 2.5 2.5 2.5 2.5 nan nan nan
5.2 6.1 nan nan nan nan nan nan nan 6.3 5.9 5.2 3.3 2.9 2.5 2.5 2.5 2.5 2.6 2.7 2.4 2.6 nan 2.4 2.5 2.5 2.7 3.1 3.1 2.7 2.7 2.5 2.5 2.5 2.5 2.5 2.5 2.5
nan 4.6 nan 6.6 nan nan 6.3 6.8 6.6 6.5 5.9 4.1 3.0 2.6 2.5 2.5 2.5 2.5 2.5 2.5 2.6 2.7 2.8 2.5 2.5 2.5 3.1 3.1 3.2 3.3 2.6 3.0 2.5 2.6 2.6 2.5 2.6 2.6
nan 5.0 4.4 5.3 5.2 4.9 4.2 5.1 5.4 4.9 4.6 4.6 4.0 3.3 2.8 2.6 2.7 2.5 2.5 2.7 3.0 3.2 3.6 3.2 3.3 2.9 2.8 3.0 3.6 3.2 3.2 2.8 2.5 2.5 2.9 2.9 2.5 2.7
4.9 5.0 4.7 4.2 4.2 3.7 4.1 3.6 3.3 3.3 3.4 3.2 3.1 3.2 3.4 3.8 3.4 3.0 2.8 3.2 3.3 3.3 3.6 3.6 3.5 3.8 3.5 3.3 2.8 3.2 3.1 3.0 2.5 2.6 2.8 3.5 3.3 2.6
5.4 5.3 5.6 4.7 4.3 3.7 3.8 3.7 3.7 3.5 4.1 2.9 3.0 2.9 2.9 2.9 2.8 3.0 3.0 3.0 3.4 3.3 3.4 3.6 3.8 3.8 4.5 5.0 3.3 nan 3.4 2.9 3.1 3.3 2.9 3.3 3.6 2.7
5.8 6.3 5.8 5.9 5.1 4.7 4.0 3.8 3.6 3.5 3.3 3.2 3.1 3.1 3.1 3.2 3.4 3.6 3.2 3.5 3.6 3.7 3.8 3.6 3.7 3.6 3.7 3.8 4.6 3.9 nan 3.4 3.3 3.7 4.1 3.3 2.9 nan
6.0 6.0 6.3 6.1 5.7 5.1 4.6 3.6 3.6 3.3 3.2 3.2 3.2 3.1 3.1 3.2 3.5 3.3 3.3 3.3 nan 3.8 4.6 4.3 3.3 nan 3.4 3.6 5.0 5.0 3.6 nan 3.2 3.2 3.2 4.5 4.4 3.6
6.3 6.0 6.0 5.8 5.8 5.4 4.7 4.0 3.6 3.4 3.2 3.3 3.3 3.2 3.1 3.3 3.6 3.5 3.6 3.8 3.9 3.5 3.8 3.6 3.7 3.5 3.9 4.2 4.9 5.8 5.7 4.1 nan nan nan nan 4.3 4.8
6.1 6.0 5.8 5.5 5.1 5.0 4.7 4.3 4.1 3.8 3.8 3.4 3.4 3.4 3.3 4.0 3.5 3.5 3.7 3.9 4.1 4.2 4.0 5.0 4.4 4.2 4.4 4.4 5.1 5.7 6.2 6.0 4.9 4.8 5.4 nan nan nan